Regional Weather Roundup
Issued by NWS Wilmington, NC

Home | Current Version | Previous Version | Text Only | Print | Product List | Glossary On
Versions: 1 2 3 4 5 6 7 8 9 10 11 12 13 14 15 16 17 18 19 20 21 22 23 24 25 26 27 28 29 30 31 32 33 34 35 36 37 38 39 40 41 42 43 44 45 46 47 48 49 50
000
ASUS42 KILM 021813
RWRILM
RWRILM
REGIONAL HOURLY WEATHER ROUNDUP
NATIONAL WEATHER SERVICE WILMINGTON NC
200 PM EDT THU JUL 02 2015

NOTE: "FAIR" INDICATES FEW OR NO CLOUDS BELOW 12,000 FEET WITH NO
SIGNIFICANT WEATHER AND/OR OBSTRUCTIONS TO VISIBILITY.

...............WFO WILMINGTON COUNTY WARNING AREA...............

......COASTAL NC AND SC COUNTIES......

CITY           SKY/WX    TMP DP  RH WIND       PRES   REMARKS
WILMINGTON     MOSUNNY   89  70  53 SW12      29.95F HX  94
N MYRTLE BEACH MOSUNNY   91  68  46 W12       29.97F HX  95
MYRTLE BEACH   PTSUNNY   93  66  40 SW17      29.99F HX  96

......INLAND NC AND SC COUNTIES.......

CITY           SKY/WX    TMP DP  RH WIND       PRES   REMARKS
LUMBERTON      MOSUNNY   90  69  50 SW13G22   29.93F HX  94
ELIZABETHTOWN  NOT AVBL
WHITEVILLE     NOT AVBL
FLORENCE       MOSUNNY   89  69  51 SW15G22   29.95F HX  93
DARLINGTON     MOSUNNY   90  70  51 SW13G20   29.95F HX  95

....................REST OF NORTH CAROLINA......................

.........EASTERN NC.........

CITY           SKY/WX    TMP DP  RH WIND       PRES   REMARKS
CAPE HATTERAS  PTSUNNY   83  75  77 SW13G21   29.94S HX  90
JACKSONVILLE   PTSUNNY   90  70  51 SW13      29.93F HX  95
MOREHEAD CITY  SUNNY     85  72  65 SW21      29.95F HX  91
KENANSVILLE    NOT AVBL
NEW BERN       PTSUNNY   88  68  51 SW9G20    29.93F HX  91
ELIZABETH CITY PTSUNNY   85  74  69 SW13      29.87F HX  92

.........CENTRAL NC.........

CITY           SKY/WX    TMP DP  RH WIND       PRES   REMARKS
RALEIGH DURHAM PTSUNNY   85  68  56 W10       29.92S
ROCKY MOUNT    PTSUNNY   88  69  53 SW13      29.90F HX  92
ROANOKE RAPIDS NOT AVBL
FAYETTEVILLE   SUNNY     88  70  55 W16G23    29.93F HX  93
HOFFMAN        MOSUNNY   88  68  51 W15G23    29.96F HX  91

.........WESTERN NC.........

CITY           SKY/WX    TMP DP  RH WIND       PRES   REMARKS
CHARLOTTE      PTSUNNY   86  65  49 SW13      29.95F
GREENSBORO     CLOUDY    82  63  52 SW12      29.93S
HICKORY        NOT AVBL
BOONE          NOT AVBL
ASHEVILLE      NOT AVBL

.....................REST OF SOUTH CAROLINA.....................

.........EASTERN SC.........

CITY           SKY/WX    TMP DP  RH WIND       PRES   REMARKS
CHARLESTON     PTSUNNY   91  69  48 W9G23     30.00F HX  96
BEAUFORT MCAS  PTSUNNY   91  73  55 SW12G21   30.00F HX  99
HILTON HEAD    MOSUNNY   81  79  94 SE3       30.03F

.........CENTRAL SC.........

CITY           SKY/WX    TMP DP  RH WIND       PRES   REMARKS
COLUMBIA       MOSUNNY   90  67  46 SW12G17   29.94F HX  93
ORANGEBURG     MOSUNNY   89  66  46 SW13G21   29.99F HX  91
SUMTER SHAW    MOSUNNY   89  69  51 SW13G20   29.95F HX  93

.........WESTERN SC.........

CITY           SKY/WX    TMP DP  RH WIND       PRES   REMARKS
GREENVILLE     NOT AVBL
ROCK HILL      PTSUNNY   87  69  54 SW13G18   29.96F HX  91
ANDERSON       PTSUNNY   85  71  63 W9        29.96F HX  90
CLEMSON        NOT AVBL
GREENWOOD      PTSUNNY   87  71  58 W12       29.97F HX  93


...................COASTAL AND OFFSHORE REPORTS..................

................LOCAL PIERS AND NC RESERVE................


STATION/POSITION TIME  SKY/WX   TEMP    WIND        PRES    VSBY
                                AIR SEA DIR/SP/G
                 (UTC)          (F)     (DEG/KT/KT) (MB)    (MI)
JOHNY MRCER PIER 1700            87 81  240/ 10/ 13 1014.2F
NC RESRV MASNBRO NOT AVBL
OCEAN CREST PIER NOT AVBL
SPRINGMAID  PIER 1700            88 83  250/  8/ 12 1015.3F


................COASTAL AND OFFSHORE BUOYS................


STATION/POSITION TIME  SKY/WX   TEMP    WIND        PRES    VSBY
                                AIR SEA DIR/SP/G
                 (UTC)          (F)     (DEG/KT/KT) (MB)    (MI)
DIMNDSHOAL 41025 1750            82 83  220/ 19/ 23 1013.7F
WVE H/P(F/S)=  4/ 7 WND WVE H/P(F/S)=  3/ 6 SWL H/P/D(F/S/D)=  2/200/ 7

CAPE LOOKOUT     1800            83     230/ 15/ 18 1014.1F
ONSLOW BAY 41036 NOT AVBL
5 WRITEBCH 41038 NOT AVBL
MASONBORO  41110 1719               80                N/A
WVE H/P(F/S)=  3/ 6 WND WVE H/P(F/S)=  3/ 6

WILM HARBR 41108 1711               82                N/A
WVE H/P(F/S)=  4/ 6 WND WVE H/P(F/S)=  5/ 6

27WRITEBCH 41037 1700               81  250/ 17/ 19   N/A
FRYING PAN 41013 1750            81 80  220/ 16/ 19 1016.1F
WVE H/P(F/S)=  4/ 6 WND WVE H/P(F/S)=  5/ 6 SWL H/P/D(F/S/D)=  2/110/ 8

SUNST NRSH 41024 1708            83     220/ 14/ 16 1015.2F
CAPRS NRSH 41029 1708            82     260/ 12/ 16 1016.8F
EDISTO     41004 1750            81 81  210/ 16/ 17 1016.2F
WVE H/P(F/S)=  4/ 7 WND WVE H/P(F/S)=  3/ 7



..........OFFSHORE BUOYS BEYOND 100 NM OFFSHORE...........
.....IN A TRIANGLE---HAT TO BERMUDA TO BAHAMAS TO HAT.....


STATION/POSITION TIME  SKY/WX   TEMP    WIND        PRES    VSBY
                                AIR SEA DIR/SP/G
                 (UTC)          (F)     (DEG/KT/KT) (MB)    (MI)
150E HAT   41001 NOT AVBL
W BERMUDA  41048 1750            81 81  210/ 12/ 16 1021.4S
WVE H/P(F/S)=  5/ 8 WND WVE H/P(F/S)=  3/ 5 SWL H/P/D(F/S/D)=  3/170/ 8

ATLANTIC S 41049 1750            82 84  130/  6/  6 1023.2
WVE H/P(F/S)=  4/ 9 WND WVE H/P(F/S)=  2/ 3 SWL H/P/D(F/S/D)=  3/140/ 9

E BAHAMAS  41046 1750            82 84  110/ 14/ 16 1020.6F
WVE H/P(F/S)=  5/ 9 WND WVE H/P(F/S)=  3/ 7 SWL H/P/D(F/S/D)=  3/120/ 9

NE BAHAMAS 41047 1750            83 84  160/ 10/ 12 1021.4S
WVE H/P(F/S)=  5/ 9 WND WVE H/P(F/S)=  2/ 4 SWL H/P/D(F/S/D)=  5/120/ 9

120E CANVRL41010 1720            83 84  230/ 10/ 12 1020.7R

END


USA.gov is the U.S. government's official web portal to all federal, state and local government web resources and services.